• Join FlightAware (Why Join?)
  • Login
  • US Flag GB Flag 
15:11 EDT


 

Airport Tracker/Info


-or-


 

Live Flight TrackerFlight Track Log ✈ JBU1329 ✈ 16-Apr-2013 ✈ KBOS - KBWI

Flight Track Log - Related Links

Times and Time Zones

All times are in EDT time to prevent confusion due to time zone crossing. See the JBU1329 flight status page for this flight to view local times or setup timezone preferences in your user account.

Time Position Orientation Groundspeed Altitude Reporting Facility
EDT Latitude Longitude Course Direction KTS MPH feet Rate Location/Type
08:33 42.3500 -71.0167 240° Southwest 144 166 900  Level KA90
08:36 42.3228 -70.8564 103° East 233 268 5,900 2,400 Climbing Boston Center
08:37 42.3130 -70.7193 172° South  Level FlightAware Approximate
08:37 42.3211 -70.7497 91° East 260 299 9,100  Level Boston Center
08:38 42.2482 -70.7944 228° Southwest  Level FlightAware Approximate
08:38 42.2456 -70.7208 164° South 220 253 10,100  Level Boston Center
08:39 42.1991 -70.8967 240° Southwest  Level FlightAware Approximate
08:39 42.1781 -70.7928 218° Southwest 215 247 12,100  Level Boston Center
08:40 42.1650 -70.9164 262° West 266 306 14,700 2,280 Climbing Boston Center
08:41 42.1497 -71.0286 260° West 319 367 16,800 2,040 Climbing Boston Center
08:42 42.1331 -71.2028 263° West 362 417 19,200 2,040 Climbing Boston Center
08:43 42.1178 -71.3400 262° West 374 430 21,300 1,860 Climbing Boston Center
08:44 42.1003 -71.4831 261° West 379 436 23,000 840 Climbing Boston Center
08:45 42.0806 -71.6094 258° West 379 436 23,000  Level Boston Center
08:46 42.0589 -71.7803 260° West 389 448 23,000  Level Boston Center
08:47 42.0408 -71.9203 260° West 389 448 23,000  Level Boston Center
08:48 42.0225 -72.0628 260° West 389 448 23,000  Level Boston Center
08:49 42.0042 -72.2028 260° West 389 448 23,000  Level Boston Center
08:50 41.9878 -72.3422 261° West 389 448 23,000  Level Boston Center
08:51 41.9689 -72.4792 260° West 389 448 23,000 900 Level Boston Center
08:52 41.9064 -72.5992 235° Southwest 383 441 24,900 1,680 Climbing Boston Center
08:53 41.8353 -72.7103 229° Southwest 383 441 26,400 1,500 Climbing Boston Center
08:54 41.7619 -72.8297 231° Southwest 404 465 27,900 1,320 Climbing Boston Center
08:55 41.6844 -72.9489 229° Southwest 424 488 29,100 1,440 Climbing Boston Center
08:56 41.6089 -73.0675 230° Southwest 429 494 30,900 1,380 Climbing Boston Center
08:57 41.5350 -73.1861 230° Southwest 424 488 32,000 540 Climbing Boston Center
08:58 41.4614 -73.3017 230° Southwest 424 488 32,000  Level Boston Center
08:59 41.3936 -73.4281 234° Southwest 424 488 32,000  Level Boston Center
09:01 41.3964 -73.6833 271° West 388 447 32,000  Level New York Center
09:02 41.3308 -73.8047 234° Southwest 399 459 32,000  Level New York Center
09:03 41.2386 -73.9083 220° Southwest 404 465 32,000  Level New York Center
09:04 41.1464 -74.0114 220° Southwest 416 479 32,000  Level New York Center
09:05 41.0539 -74.1114 219° Southwest 429 494 32,000 -240 Level New York Center
09:06 40.9508 -74.2217 219° Southwest 435 501 31,600 -1,380 Descending New York Center
09:07 40.8581 -74.3242 220° Southwest 440 506 29,300 -2,340 Descending New York Center
09:08 40.7739 -74.4264 223° Southwest 435 501 27,000 -2,220 Descending New York Center
09:09 40.7014 -74.5458 231° Southwest 418 481 24,900 -2,100 Descending New York Center
09:10 40.6372 -74.6544 232° Southwest 407 468 22,800 -1,980 Descending New York Center
09:11 40.5689 -74.7653 231° Southwest 395 455 21,000 -1,680 Descending New York Center
09:12 40.5011 -74.8597 227° Southwest 383 441 19,500 -1,500 Descending New York Center
09:13 40.4311 -74.9564 226° Southwest 373 429 18,100 -780 Descending New York Center
09:14 40.3631 -75.0556 228° Southwest 368 423 18,000 -60 Descending New York Center
09:15 40.2947 -75.1522 227° Southwest 368 423 18,000  Level New York Center
09:16 40.2333 -75.2381 227° Southwest 368 423 18,000  Level New York Center
09:17 40.1519 -75.3469 226° Southwest 373 429 18,000  Level New York Center
09:18 40.0814 -75.4425 226° Southwest 373 429 18,000  Level New York Center
09:19 40.0197 -75.5278 227° Southwest 373 429 18,000 -120 Level New York Center
09:20 39.9444 -75.6336 227° Southwest 367 422 17,800 -720 Descending New York Center
09:21 39.8906 -75.7247 232° Southwest 372 428 16,600 -1,260 Descending New York Center
09:23 39.7500 -76.0000 236° Southwest 346 398 13,400 -1,320 Descending Potomac TRACON
09:24 39.7000 -76.1000 237° Southwest 338 389 12,100 -1,200 Descending Potomac TRACON
09:25 39.6500 -76.2000 237° Southwest 299 344 11,000 -1,260 Descending Potomac TRACON
09:26 39.6000 -76.2833 232° Southwest 275 316 9,600 -1,500 Descending Potomac TRACON
09:27 39.5833 -76.3667 255° West 267 307 8,100 -960 Descending Potomac TRACON
09:28 39.5667 -76.4667 258° West 260 299 7,700 -600 Descending Potomac TRACON
09:29 39.5500 -76.5500 255° West 252 290 7,000 -360 Descending Potomac TRACON
09:30 39.5500 -76.6333 270° West 210 242 7,000 -480 Level Potomac TRACON
09:31 39.5500 -76.7000 270° West 207 238 6,100 -1,020 Descending Potomac TRACON
09:32 39.5333 -76.7667 252° West 214 246 5,100 -1,080 Descending Potomac TRACON
09:33 39.4833 -76.8000 207° Southwest 195 224 4,100 -600 Descending Potomac TRACON
09:34 39.4500 -76.8500 229° Southwest 193 222 4,000 -60 Descending Potomac TRACON
09:35 39.4000 -76.9000 218° Southwest 192 221 4,000 -60 Level Potomac TRACON
09:36 39.3667 -76.9333 218° Southwest 192 221 3,900  Descending Potomac TRACON
09:37 39.3167 -76.9833 218° Southwest 199 229 4,000  Climbing Potomac TRACON
09:38 39.2667 -76.9833 180° South 181 208 4,000 -60 Level Potomac TRACON
09:39 39.2333 -76.9833 180° South 153 176 3,900 -600 Descending Potomac TRACON
09:40 39.2000 -76.9500 142° Southeast 174 200 2,900 -540 Descending Potomac TRACON
09:41 39.1667 -76.9167 142° Southeast 164 189 2,900 -480 Level Potomac TRACON
09:42 39.1833 -76.8500 72° East 193 222 2,000 -660 Descending Potomac TRACON
09:43 39.1833 -76.8000 90° East 152 175 1,700 -600 Descending Potomac TRACON
09:44 39.1833 -76.7500 90° East 141 162 900 -840 Descending Potomac TRACON